Tracking 29892 objects as of 21-Nov-2024
HD Live streaming from Space Station
objects crossing your sky now

COSMOS 1375 DEB

Track COSMOS 1375 DEB now!
10-day predictions


NORAD ID: 16208
Int'l Code: 1982-055K
Perigee: 954.9 km
Apogee: 1,014.7 km
Inclination: 65.8 °
Period: 104.6 minutes
Semi major axis: 7355 km
RCS: 0.2426 m2 (medium)
Launch date: June 6, 1982
Source: Commonwealth of Independent States (former USSR) (CIS)
Launch site: PLESETSK MISSILE AND SPACE COMPLEX (PKMTR)

Note: This is SATELLITE DEBRIS
Your satellite tracking list
Your tracking list is empty




NASA's NSSDC Master Catalog

Two Line Element Set (TLE):
1 16208U 82055K   24325.02801681  .00000010  00000-0  92481-4 0  9998
2 16208  65.8346 327.0892 0040686 171.1301 209.2821 13.76123558963171
Source of the keplerian elements: AFSPC